This demonstration page uses our WeatherBlox Daily Observations layout. Learn more.

Hourly Observations for December 12, 2018

Temp ( °F °C ) Dew Point ( °F °C ) Humidity (%) Winds ( mph kmh ) Pressure ( in mb ) Visibility ( mi km ) Precip ( " mm )
12:15 am 00:15 Clear 29 -1.6 27 -3 90 90 WSW 8 13 30.03 1017 10 16.0934 0 0
12:35 am 00:35 Clear 27 -2.7 26 -3.6 94 94 W 6 9 30.03 1017 10 16.0934 0 0
12:55 am 00:55 Clear 28 -2.5 25 -3.7 92 92 W 8 13 30.03 1017 10 16.0934 0 0
1:15 am 01:15 Clear 28 -2.5 25 -3.7 92 92 WSW 12 19 30.03 1017 10 16.0934 0 0
1:35 am 01:35 Clear 29 -1.9 25 -3.7 88 88 W 12 19 30 1016 10 16.0934 0 0
1:55 am 01:55 Clear 28 -2.5 24 -4.2 88 88 W 9 15 30 1016 10 16.0934 0 0
2:15 am 02:15 Clear 27 -3 24 -4.5 90 90 W 10 17 30 1016 10 16.0934 0 0
2:35 am 02:35 Clear 26 -3.5 23 -5 89 89 W 9 15 30 1016 10 16.0934 0 0
2:55 am 02:55 Clear 26 -3.1 23 -4.8 88 88 W 6 9 30 1016 10 16.0934 0 0
3:15 am 03:15 Clear 26 -3.3 23 -5 88 88 W 6 9 30 1016 10 16.0934 0 0
3:35 am 03:35 Clear 24 -4.7 22 -5.8 92 92 W 6 9 30.03 1017 10 16.0934 0 0
3:55 am 03:55 Clear 26 -3.5 23 -5 89 89 W 7 11 30 1016 10 16.0934 0 0
4:15 am 04:15 Clear 26 -3.2 23 -5.1 87 87 W 7 11 29.97 1015 10 16.0934 0 0
4:35 am 04:35 Clear 26 -3.1 23 -5 87 87 W 7 11 29.97 1015 10 16.0934 0 0
4:55 am 04:55 Clear 26 -3.4 23 -5.2 88 88 WSW 5 7 29.97 1015 10 16.0934 0 0
5:15 am 05:15 Clear 25 -3.7 22 -5.3 89 89 WSW 6 9 29.94 1014 10 16.0934 0 0
5:35 am 05:35 Clear 25 -3.8 22 -5.6 87 87 Calm 29.97 1015 10 16.0934 0 0
5:55 am 05:55 Clear 24 -4.2 22 -5.8 89 89 SW 5 7 29.94 1014 10 16.0934 0 0
6:15 am 06:15 Clear 23 -4.8 21 -6 91 91 SW 3 6 29.94 1014 10 16.0934 0 0
6:35 am 06:35 Clear 24 -4.4 22 -5.7 91 91 SW 7 11 29.94 1014 10 16.0934 0 0
6:55 am 06:55 Clear 23 -4.8 21 -6 91 91 SW 7 11 29.94 1014 10 16.0934 0 0
7:15 am 07:15 Clear 23 -5.1 21 -6.1 93 93 SW 6 9 29.91 1013 10 16.0934 0 0
7:35 am 07:35 Clear 22 -5.5 20 -6.4 93 93 SW 5 7 29.94 1014 10 16.0934 0 0
7:55 am 07:55 Sunny 21 -6 20 -6.7 95 95 SW 6 9 29.94 1014 10 16.0934 0 0
8:15 am 08:15 Sunny 23 -5.2 21 -6 94 94 SW 6 9 29.91 1013 10 16.0934 0 0
8:35 am 08:35 Sunny 25 -4.1 22 -5.7 89 89 SW 8 13 29.91 1013 10 16.0934 0 0
8:55 am 08:55 Sunny 26 -3.6 22 -5.5 87 87 SW 9 15 29.91 1013 10 16.0934 0 0
9:15 am 09:15 Sunny 28 -2.3 23 -4.9 83 83 SW 13 20 29.88 1012 10 16.0934 0 0
9:35 am 09:35 Sunny 29 -1.5 24 -4.5 80 80 SW 10 17 29.88 1012 10 16.0934 0 0
9:55 am 09:55 Sunny 32 -0.2 25 -4.1 75 75 SW 13 20 29.88 1012 10 16.0934 0 0
10:15 am 10:15 Sunny 33 0.5 25 -3.7 74 74 SW 14 22 29.88 1012 10 16.0934 0 0
10:35 am 10:35 Sunny 35 1.5 26 -3.1 72 72 SW 12 19 29.85 1011 10 16.0934 0 0
10:55 am 10:55 Sunny 35 1.9 26 -3.1 70 70 SSW 16 26 29.83 1010 10 16.0934 0 0
11:15 am 11:15 Sunny 36 2.2 27 -2.7 70 70 SSW 14 22 29.83 1010 10 16.0934 0 0
11:35 am 11:35 Sunny 37 2.5 28 -2.5 70 70 SSW 12 19 29.83 1010 10 16.0934 0 0
11:55 am 11:55 Sunny 38 3.1 28 -2 70 70 SSW 10 17 29.83 1010 10 16.0934 0 0
12:15 pm 12:15 Sunny 38 3.5 29 -1.6 70 70 SSW 12 19 29.77 1008 10 16.0934 0 0
12:35 pm 12:35 Sunny 38 3.5 29 -1.5 70 70 SW 12 19 29.77 1008 10 16.0934 0 0
12:55 pm 12:55 Sunny 39 3.7 29 -1.5 69 69 SW 10 17 29.77 1008 10 16.0934 0 0
1:15 pm 13:15 Sunny 40 4.2 30 -1 69 69 SW 6 9 29.74 1007 10 16.0934 0 0
1:35 pm 13:35 Sunny 41 4.8 31 -0.8 67 67 SSW 12 19 29.74 1007 10 16.0934 0 0
1:55 pm 13:55 Sunny 42 5.3 30 -1 64 64 SSW 14 22 29.71 1006 10 16.0934 0 0
2:15 pm 14:15 Sunny 41 5.1 31 -0.8 66 66 SW 10 17 29.71 1006 10 16.0934 0 0
2:35 pm 14:35 Sunny 42 5.4 31 -0.7 65 65 WSW 8 13 29.74 1007 10 16.0934 0 0
2:55 pm 14:55 Sunny 42 5.8 31 -0.6 64 64 SW 7 11 29.74 1007 10 16.0934 0 0
3:15 pm 15:15 Sunny 42 5.3 31 -0.3 67 67 SW 5 7 29.74 1007 10 16.0934 0 0
3:35 pm 15:35 Sunny 42 5.4 31 -0.3 67 67 SW 7 11 29.71 1006 10 16.0934 0 0
3:55 pm 15:55 Sunny 42 5.4 32 -0.2 68 68 WSW 6 9 29.74 1007 10 16.0934 0 0
4:15 pm 16:15 Sunny 42 5.3 32 -0.2 68 68 SW 3 6 29.74 1007 10 16.0934 0 0
4:35 pm 16:35 Sunny 41 4.9 32 -0.1 70 70 WNW 5 7 29.74 1007 10 16.0934 0 0
4:55 pm 16:55 Sunny 39 4 31 -0.7 72 72 W 5 7 29.74 1007 10 16.0934 0 0
5:15 pm 17:15 Clear 38 3.1 30 -1.2 74 74 W 3 6 29.74 1007 10 16.0934 0 0
5:35 pm 17:35 Clear 37 2.7 30 -1.2 76 76 Calm 29.77 1008 10 16.0934 0 0
5:55 pm 17:55 Clear 37 2.7 29 -1.5 74 74 Calm 29.77 1008 10 16.0934 0 0
6:15 pm 18:15 Clear 35 1.7 29 -1.9 77 77 Calm 29.77 1008 10 16.0934 0 0
6:35 pm 18:35 Clear 32 0 28 -2.3 85 85 Calm 29.77 1008 10 16.0934 0 0
6:55 pm 18:55 Clear 36 2.1 27 -3 69 69 W 8 13 29.8 1009 10 16.0934 0 0
7:15 pm 19:15 Clear 39 3.8 26 -3.2 61 61 WNW 6 9 29.77 1008 10 16.0934 0 0
7:35 pm 19:35 Clear 38 3.5 26 -3.5 61 61 WNW 8 13 29.77 1008 10 16.0934 0 0
7:55 pm 19:55 Clear 37 2.6 25 -3.7 64 64 WNW 7 11 29.8 1009 10 16.0934 0 0
8:15 pm 20:15 Clear 36 2.1 26 -3.6 66 66 WNW 7 11 29.8 1009 10 16.0934 0 0
8:35 pm 20:35 Clear 37 3 26 -3.6 62 62 WNW 6 9 29.8 1009 10 16.0934 0 0
8:55 pm 20:55 Clear 36 2.4 25 -3.7 64 64 W 8 13 29.83 1010 10 16.0934 0 0
9:15 pm 21:15 Clear 37 3 26 -3.6 62 62 W 7 11 29.83 1010 10 16.0934 0 0
9:35 pm 21:35 Clear 37 3 26 -3.6 62 62 W 8 13 29.83 1010 10 16.0934 0 0
9:55 pm 21:55 Clear 37 2.6 26 -3.5 64 64 W 8 13 29.83 1010 10 16.0934 0 0
10:15 pm 22:15 Clear 37 3 27 -2.9 66 66 WNW 12 19 29.83 1010 10 16.0934 0 0
10:35 pm 22:35 Clear 37 2.9 27 -2.9 66 66 WNW 12 19 29.85 1011 10 16.0934 0 0
10:55 pm 22:55 Clear 33 0.3 28 -2.3 83 83 NW 9 15 29.88 1012 10 16.0934 0 0
11:15 pm 23:15 Clear 36 2 31 -0.6 83 83 NW 13 20 29.85 1011 10 16.0934 0 0
11:35 pm 23:35 Clear 36 2 32 -0.2 86 86 NNW 13 20 29.85 1011 10 16.0934 0 0
11:55 pm 23:55 Clear 35 1.9 32 0 87 87 NNW 12 19 29.85 1011 10 16.0934 0 0

Powered by AerisWeather